Regional Weather Roundup
Issued by NWS Charleston, SC

Current Version | Previous Version | Text Only | Print | Product List | Glossary On
Versions: 1 2 3 4 5 6 7 8 9 10 11 12 13 14 15 16 17 18 19 20 21 22 23 24 25 26 27 28 29 30 31 32 33 34 35 36 37 38 39 40 41 42 43 44 45 46 47 48 49 50
093
ASUS42 KCHS 222227
RWRCHS

REGIONAL WEATHER ROUNDUP
NATIONAL WEATHER SERVICE CHARLESTON SC
600 PM EDT WED MAR 22 2017

NOTE: "FAIR" INDICATES FEW OR NO CLOUDS BELOW 12,000 FEET WITH NO
SIGNIFICANT WEATHER AND/OR OBSTRUCTIONS TO VISIBILITY.

NOT ALL STATIONS ARE QUALITY CONTROLLED. USE DATA WITH CAUTION...
ESPECIALLY DEWPOINT OBSERVATIONS.

SCZ027-030-031-034>040-042>050-222300-
...SOUTHEAST SOUTH CAROLINA...

CITY           SKY/WX    TMP DP  RH WIND       PRES   REMARKS
N CHARLESTON   MOSUNNY   68  50  52 E14       30.12R
WATERFRONT PRK   N/A     65  54  67 E15       30.11
JOHNS ISLAND   FAIR      63  52  67 E14       30.14R
PINOPOLIS        N/A     64  52  63 N10       30.03R
MONCKS CORNER  FAIR      68  36  30 N10       30.14R
SUMMERVILLE    FAIR      70  41  35 N10G17    30.13S
BEAUFORT MCAS  MOSUNNY   66  55  67 E16       30.12R
BEAUFORT ARPT  FAIR      63  54  72 E10G18    30.13R
HILTON HEAD IS MOSUNNY   64  55  72 E10       30.12R
WALTERBORO     PTCLDY    70  43  37 NE9       30.14R
ALLENDALE      FAIR      73  43  33 N5G12     30.12R

...SOUTHERN MIDLANDS AND PEE DEE...

CITY           SKY/WX    TMP DP  RH WIND       PRES   REMARKS
GEORGETOWN     FAIR      61  50  67 E12       30.17R
KINGSTREE      FAIR      63  27  25 N5        30.17R
ORANGEBURG     MOSUNNY   69  38  32 NE14      30.14R
BARNWELL       FAIR      72  43  35 NE10      30.14R
AIKEN          FAIR      66  37  34 NE13      30.19R
MANNING        FAIR      64  32  29 NE13G18   30.17R
COLUMBIA       CLOUDY    67  34  29 NE10      30.16R
SUMTER         CLOUDY    65  27  24 N14       30.15R
FLORENCE       CLOUDY    63  22  20 N13G23    30.18R
MYRTLE BEACH   MOSUNNY   61  50  67 E12       30.16R
N MYRTLE BEACH CLOUDY    59  49  69 E13G21    30.15R

$$

GAZ063-065-086>088-099>101-113>116-118-119-134>141-150-222300-
...SOUTHEAST GEORGIA...

CITY           SKY/WX    TMP DP  RH WIND       PRES   REMARKS
SAVANNAH ARPT  PTSUNNY   70  50  49 SE17      30.09R
HUNTER AAF     SUNNY     70  53  53 E15       30.08R
FORT STEWART   CLOUDY    71  56  59 E14       30.06R
STATESBORO     SUNNY     74  52  44 NE7       30.10R
SYLVANIA       CLOUDY   N/A N/A N/A NE7       30.12R
CLAXTON        FAIR      76  56  48 N6        30.09R

...CSRA...CENTRAL AND FAR SOUTHEAST GEORGIA...

CITY           SKY/WX    TMP DP  RH WIND       PRES   REMARKS
THOMSON        CLOUDY    69  45  41 MISG      30.19R
AUGUSTA-BUSH   PTSUNNY   73  46  38 NE10      30.12R
AUGUSTA-DANIEL CLOUDY    71  42  35 NE12      30.14R
SWAINSBORO     FAIR      73  52  46 NE7       30.11R
VIDALIA        SUNNY     77  55  47 NE10      30.09R
EASTMAN        FAIR      79  37  22 NE10      30.10R
HAZLEHURST     FAIR      81  56  42 NE7       30.06R
ALMA           PTSUNNY   80  56  43 VRB3      30.04R
WAYCROSS       CLOUDY    85  58  40 NE8       30.05R
JESUP          CLOUDY    73  57  56 E9G17     30.08R
BAXLEY         FAIR      81  61  50 E12       30.06R
BRUNSWICK      SUNNY     70  59  68 NE16      30.10R
SAINT SIMONS   SUNNY     68  57  68 E13       30.08R

$$

SCZ027-028-034-036>038-045-046-048>050-GAZ119-141-222300-
...LAKE AND SUPPLEMENTAL COASTAL OBSERVATIONS...

STATION/POSITION TIME  TEMP    WIND        PRES    WAVE   SWELL
                       AIR SEA DIR/SP/G            HT/PER HT/PER/DIR
                 (UTC) (F)     (DEG/KT/KT) (MB)    (FT/S) (FT/S/D)
WINYAH BAY       2145   60      80/ 10     1020.0R
LAKE MURRAY      2130   66      30/  2/  7 1020.7R
ACE BASIN NERRS  2130   68     110/  5     1019.0S
FORT PULASKI     2200   63 61   90/ 16/ 19 1019.8
SAPELO ISLAND    2200   67      80/ 13     1019.0

$$

ANZ835-935-AMZ111-154-330-350-352-354-370-450-454-472-222300-
...C-MAN AND BUOY OBSERVATIONS...

STATION/POSITION TIME  TEMP    WIND        PRES    WAVE   SWELL
                       AIR SEA DIR/SP/G            HT/PER HT/PER/DIR
                 (UTC) (F)     (DEG/KT/KT) (MB)    (FT/S) (FT/S/D)
BUOY 41004       2150   63 65   60/ 21/ 23 1019.2R   5/ 6   2/ 90/11
BUOY 41008       2150   64 62   70/ 17/ 21 1018.0R   3/ 4   2/120/10
FOLLY BEACH CMAN 2200   61      80/ 14/ 16 1021.1R
CAPERS NEARSHORE 2208   60      90/ 16/ 19 1020.1R
FRIPP NEARSHORE  2208   62 60   90/ 14/ 17 1019.6R


STATION/POSITION TIME  TEMP    WIND        PRES    WAVE   SWELL
                       AIR SEA DIR/SP/G            HT/PER HT/PER/DIR
                 (UTC) (F)     (DEG/KT/KT) (MB)    (FT/S) (FT/S/D)
5E ST. MARYS GA  2200      64                N/A     3/ 4   2/100/12
FRYING PAN BUOY  2210   60 65   40/ 21/ 25 1021.4
BUOY 41025       2150   48 73   10/ 27/ 35 1023.4R  10/ 7
CAPE LOOKOUT NC  2200   51      40/ 28/ 30 1023.2R
BUOY 41002       2150   67 75   20/ 25/ 29 1016.6R   9/ 8   7/280/ 8
BUOY 41010       NOT AVBL
ST AUGUSTINE FL  2200   67 67   50/ 18/ 20 1018.1R


$$




USA.gov is the U.S. government's official web portal to all federal, state and local government web resources and services.